Tracking 22459 objects as of 3-Mar-2021
HD Live streaming from Space Station
objects crossing your sky now

TITAN 3C TRANSTAGE DEB

Track TITAN 3C TRANSTAGE DEB now!


NORAD ID: 20760
Int'l Code: 1965-108AE
Perigee: 614.0 km
Apogee: 28,941.0 km
Inclination: 27.0 °
Period: 510.1 minutes
Semi major axis: 21148 km
RCS: 0.1468 m2 (medium)
Launch date: December 21, 1965
Source: United States (US)
Launch site: AIR FORCE EASTERN TEST RANGE (AFETR)

Note: This is SATELLITE DEBRIS
aabbcc
Your satellite tracking list
Your tracking list is empty




NASA's NSSDC Master Catalog

Two Line Element Set (TLE):
1 20760U 65108AE  20311.34548398 -.00000010 +00000+0 +52282-3 0  9999
2 20760  27.0082 158.3077 6697167 224.5326 350.0296  2.82282110093297
Source of the keplerian elements: AFSPC